{"data":{"norad_id":66440,"intl_designator":"2025-259U","name":"STARLINK-35405","alt_names":[],"object_type":"PAYLOAD","status":"ACTIVE","operator":null,"country":"US","launch_date":"2025-11-11","launch_site_code":"AFETR","launch_vehicle":null,"mission":null,"orbit_class":"UNKNOWN","rcs_meters":null,"size_class":null,"mass_kg":null,"dimensions":null,"purposes":["comms"],"wikipedia_slug":null,"has_3d_model":false,"image_url":null,"decayed_at":null,"tle_current":{"epoch":"2026-05-25T04:58:06.220416Z","epoch_age_seconds":47431,"freshness":"FRESH","line1":"1 66440U 25259U   26145.20701644  .00012599  00000+0  46645-3 0  9998","line2":"2 66440  43.0000 202.2147 0001103 283.5461  76.5268 15.27588877 31197","mean_motion":15.27588877,"eccentricity":0.0001103,"inclination_deg":43,"raan_deg":202.2147,"arg_perigee_deg":283.5461,"mean_anomaly_deg":76.5268,"bstar":0.00046645,"rev_number":3119,"period_min":94.266200918403,"perigee_km":482.26572934236,"apogee_km":483.77930113142,"semimajor_km":6861.1595152369,"source":"CELESTRAK","updated_at":"2026-05-25T13:38:21.210963Z"}}}